EW6566 Weather Reports


time (UTC)temp
C
wind
direction
speed
KPH
gust
KPH
rain 1hr
cm
rain 24hr
cm
rain mn
cm
humidity
%
barometer
mb
20260502233519 13 0.0 0.0 0.00 0.00 0.00 99 1013.0
20260502232536 13 0.0 0.0 0.00 0.00 0.00 98 1013.2
20260502231520 13 0.0 0.0 0.00 0.00 0.00 98 1013.1
20260502230559 13 0.0 0.0 0.00 0.00 0.00 97 1012.8
20260502225520 13 0.0 0.0 0.00 0.00 0.00 97 1013.2
20260502224540 13 0.0 0.0 0.00 0.00 0.00 96 1013.6
20260502223520 13 0.0 0.0 0.00 0.00 0.00 95 1014.3
20260502222519 13 0.0 0.0 0.00 0.00 0.00 93 1014.8
20260502221520 13 0.0 0.0 0.00 0.00 0.00 90 1015.0
20260502220519 15 0.0 0.0 0.00 0.00 0.00 84 1015.4
20260502215520 16 0.0 0.0 0.00 0.00 0.00 65 1015.2
20260502214540 16 0.0 0.0 0.00 0.00 0.00 62 1014.3
20260502213520 16 0.0 0.0 0.00 0.00 0.00 61 1013.8
20260502212520 16 0.0 0.0 0.00 0.00 0.00 61 1013.8
20260502211548 16 0.0 0.0 0.00 0.00 0.00 60 1013.9
20260502210519 16 0.0 0.0 0.00 0.00 0.00 57 1014.0
20260502205520 16 0.0 0.0 0.00 0.00 0.00 55 1013.5
20260502204519 16 0.0 0.0 0.00 0.00 0.00 55 1013.8
20260502203533 16 0.0 0.0 0.00 0.00 0.00 56 1013.9
20260502202519 16 0.0 0.0 0.00 0.00 0.00 57 1014.0
20260502201527 16 0.0 0.0 0.00 0.00 0.00 56 1014.2
20260502200600 17 0.0 0.0 0.00 0.00 0.00 57 1014.2
20260502195536 17 0.0 0.0 0.00 0.00 0.00 56 1014.4
20260502194520 17 0.0 0.0 0.00 0.00 0.00 56 1014.6
20260502193519 17 0.0 0.0 0.00 0.00 0.00 55 1014.7
20260502192539 17 0.0 0.0 0.00 0.00 0.00 53 1014.6
20260502191519 18 0.0 0.0 0.00 0.00 0.00 52 1014.5
20260502190541 18 0.0 0.0 0.00 0.00 0.00 50 1014.5
20260502185520 18 0.0 0.0 0.00 0.00 0.00 49 1014.6
20260502184539 18 0.0 0.0 0.00 0.00 0.00 48 1014.5
20260502183519 19 0.0 0.0 0.00 0.00 0.00 50 1014.5
20260502182557 19 0.0 0.0 0.00 0.00 0.00 47 1014.5
20260502181519 20 0.0 0.0 0.00 0.00 0.00 48 1014.4
20260502180520 20 0.0 0.0 0.00 0.00 0.00 46 1014.4
20260502170519 22 0.0 0.0 0.00 0.00 0.00 49 1014.7
20260502163525 22 0.0 0.0 0.00 0.00 0.00 48 1015.3
20260502162519 22 0.0 0.0 0.00 0.00 0.00 48 1015.4
20260502161519 22 0.0 0.0 0.00 0.00 0.00 47 1015.4
20260502160520 23 0.0 0.0 0.00 0.00 0.00 47 1015.5
20260502151530 25 0.0 0.0 0.00 0.00 0.00 41 1015.8
20260502150539 25 0.0 0.0 0.00 0.00 0.00 39 1015.9
20260502130519 22 0.0 1.6 0.00 0.00 0.00 54 1017.1
20260502123519 22 0.0 0.0 0.00 0.00 0.00 56 1017.4
20260502122518 22 0.0 0.0 0.00 0.00 0.00 56 1017.5
20260502121547 22 0.0 0.0 0.00 0.00 0.00 55 1017.6
20260502120536 22 0.0 0.0 0.00 0.00 0.00 55 1017.6
20260502115518 22 0.0 0.0 0.00 0.00 0.00 55 1017.6
20260502114518 22 0.0 0.0 0.00 0.00 0.00 55 1017.7
20260502113538 22 0.0 0.0 0.00 0.00 0.00 56 1017.7
20260502112518 21 0.0 0.0 0.00 0.00 0.00 57 1017.9
20260502111549 21 0.0 0.0 0.00 0.00 0.00 58 1017.9
20260502110518 21 0.0 0.0 0.00 0.00 0.00 58 1017.9
20260502105518 21 0.0 0.0 0.00 0.00 0.00 57 1017.9
20260502104518 21 0.0 0.0 0.00 0.00 0.00 58 1018.1
20260502103518 22 0.0 0.0 0.00 0.00 0.00 56 1018.1
20260502102520 21 0.0 0.0 0.00 0.00 0.00 58 1018.0
20260502100518 21 0.0 0.0 0.00 0.00 0.00 58 1018.3
20260502090538 18 0.0 0.0 0.00 0.00 0.00 63 1018.4
20260502071518 13 0.0 0.0 0.00 0.00 0.00 59 1018.6
20260502070518 13 0.0 0.0 0.00 0.00 0.00 59 1018.5
20260502065518 13 0.0 0.0 0.00 0.00 0.00 58 1018.6
20260502064518 13 0.0 0.0 0.00 0.00 0.00 57 1018.5
20260502063518 13 0.0 0.0 0.00 0.00 0.00 58 1018.7
20260502062518 12 0.0 0.0 0.00 0.00 0.00 58 1018.7
20260502061518 12 0.0 0.0 0.00 0.00 0.00 57 1018.6
20260502060518 12 0.0 0.0 0.00 0.00 0.00 56 1018.5
20260502055518 12 0.0 0.0 0.00 0.00 0.00 56 1018.6
20260502054518 12 0.0 0.0 0.00 0.00 0.00 56 1018.6
20260502053519 11 0.0 0.0 0.00 0.00 0.00 59 1018.5
20260502052549 11 0.0 0.0 0.00 0.00 0.00 62 1018.2
20260502051538 11 0.0 0.0 0.00 0.00 0.00 62 1018.2
20260502050553 11 0.0 0.0 0.00 0.00 0.00 62 1018.1
20260502045518 11 0.0 0.0 0.00 0.00 0.00 59 1018.4
20260502044520 11 0.0 0.0 0.00 0.00 0.00 58 1018.4
20260502043531 11 0.0 0.0 0.00 0.00 0.00 58 1018.4
20260502042517 11 0.0 0.0 0.00 0.00 0.00 60 1018.3
20260502041518 10 0.0 0.0 0.00 0.00 0.00 63 1018.3
20260502040518 10 0.0 0.0 0.00 0.00 0.00 63 1018.3
20260502035538 11 0.0 0.0 0.00 0.00 0.00 62 1018.4
20260502034518 11 0.0 0.0 0.00 0.00 0.00 61 1018.5
20260502033518 11 0.0 0.0 0.00 0.00 0.00 60 1018.5
20260502032616 11 0.0 0.0 0.00 0.00 0.00 58 1018.6
20260502031518 11 0.0 0.0 0.00 0.00 0.00 57 1018.6
20260502030539 12 0.0 0.0 0.00 0.00 0.00 56 1018.8
20260502025519 12 0.0 0.0 0.00 0.00 0.00 56 1018.8
20260502024519 12 0.0 0.0 0.00 0.00 0.00 55 1018.8
20260502023519 11 0.0 0.0 0.00 0.00 0.00 56 1019.0
20260502022520 11 0.0 0.0 0.00 0.00 0.00 57 1018.9